METEOR 1-17

Satellite information

Favourite Embed

Satellite Type and Status

PAYLOADIN ORBIT

Key statistics

Satellite METEOR 1-17 at a glance.

Uptime

18756

Days in orbit

Revolutions

≈ 14.1

Per day

Orbit

LEO

Low Earth Orbit

Inclination

81.2

Latest

Satellite identification and parameters

Extended collection of information and parameters for METEOR 1-17.

Object identification

Identified? True

Debris? False

Object name: METEOR 1-17

International designator: 1974-025A

Object number (NORAD): 7274

Object ID (CCSDS): 7274

Country: COMMONWEALTH OF INDEPENDENT STATES (CIS)

Current information (Y/N): Y

RCS size: LARGE

Orbital parameters

Period: 102.212 minutes

Inclination: 81.2089 deg

SMA: 7241.502 km

Apoapsis: 878.133 km

Periapsis: 848.6 km

RAAN: 221.2134 deg

Eccentricy: 0.00203916

Argument of periapsis: 76.6764 deg

Mean anomaly: 283.6678 deg

Mean motion: 14.08833891 rev/day

Mean motion (dot): 0.00000007 rev/day2

B* drag term: -0.000003387995 1/REarth

Two-line elements (TLE)

Creation date: Aug. 30, 2025, 3:38 a.m.

Reference frame: TEME

Reference center: EARTH

Epoch: Aug. 29, 2025, 10:22 p.m. UTC

TLE line 0: 0 METEOR 1-17

TLE line 1: 1 07274U 74025A 25241.93261403 .00000007 00000-0 -33880-5 0 9995

TLE line 2: 2 07274 81.2089 221.2134 0020392 76.6764 283.6678 14.08833891637299

Live tracking on map

Real-time ground track for satellite METEOR 1-17.

In-orbit conjunctions

A list of the most updated potential collisions computed for object METEOR 1-17.

Target Orbit TCA Probability of collision Miss distance Type
CZ-6A DEB SSO 2025-08-08 09:44:03 0.0009529161 340.0 (m) DEBRIS
FENGYUN 1C DEB SSO 2025-08-08 04:25:36 0.003823932 189.0 (m) DEBRIS
FENGYUN 1C DEB SSO 2025-06-16 21:01:07 0.000102299 309.0 (m) DEBRIS
NOAA 16 DEB SSO 2025-04-19 11:03:26 0.0004959001 52.0 (m) DEBRIS
CZ-6A DEB LEO 2024-11-27 18:30:35 0.0001810665 272.0 (m) DEBRIS

Associated space launch

The Meteor-1 series was the first series of Soviet meteorological satellites.

METEOR 1-17 was lifted into orbit during the mission ‘Vostok 8A92M | Meteor-1 17 (22L)’, on board a Vostok 8A92M space rocket.

The launch took place on April 24, 1974, 11:50 a.m. from 43/4 (43R).

For more information about the launch, click the button.

Launch to space Vostok 8A92M | Meteor-1 17 (22L)
Vostok 8A92M | Meteor-1 17 (22L)

Agency: N/A

Status: Launch Successful

Launch date: April 24, 1974, 11:50 a.m. UTC

Rocket: Vostok 8A92M

Launch pad: 43/4 (43R)

Location: Plesetsk Cosmodrome, Russian Federation

...

Latest news about this satellite

There are no fresh news available about this satellite. Check back as we update our databases every day.


Newsletter sign-up

Weekly statistics, charts and insights to help you stay on top of the space industry.